Location: Chuathbaluk
(61.5726°N, 159.2454°W)
Time: 13:53:27
(UTC+00:00)

DELFI C3 - Pass Details

Date: 23 January 2021
Orbit: 531 x 550 km, 97.4° (Epoch: 04 March)

Event Time Altitude Azimuth Distance (km) Brightness Sun altitude
Exits shadow 05:51:08 54° 337° (NNW) 679 ? -24.4°
Drops below altitude 10° 05:54:17 10° 343° (NNW) 1,844 ? -24.7°
Sets 05:56:25 0° 344° (NNW) 2,744 ? -25.0°
